Время (UTC), дата Ветер
(°,м/с) 
Видим.   Явления Облачность Т
(°С)
Тd
(°С)
f(%) Тe
(°С)
Pmin
(гПа)
dP
(гПа)
Po
(мм)
O2
(г/м3)
Тmin Tmax R s Состояние
почвы
00 01.06.13 220 (ЮЗ) 10 км    3/0 средняя 
[Ac trans]
+19.7 +13.5 67 +27  1004.6  0.5  751  279           
03 01.06.13 тихо ()   10 км    ясно 
+17.5 +10.3 63 +19  1004.9  0.3  751  283  +17         
06 01.06.13 260 (З) 10 км    9/1 1000 м средняя, верхняя 
[Sc|Ac cast|Ci]
+24.3 +10.2 41 +26  1005.2  0.4  751  276           
09 01.06.13 230 (ЮЗ) 10 км    9/8 1000 м средняя 
[Sc|Ac cast]
+27.3 +9.3 32 +28  1005.7  0.5  752  274           
12 01.06.13 250 (З) 10 км    8/4 1000 м средняя 
[Cu med, cong|Ac cast]
+27 +14.6 47 +35  1005.6  0.1  752  273           
15 01.06.13 280 (З) 3{15}  10 км    9/9 1000 м кучево-дожд. 
[Cb cap]
+18.9 +14.3 75 +27  1008.4  2.6  754  281    +28.6       
18 01.06.13 220 (ЮЗ) 10 км    8/8 1000 м 
[Sc diur, vesp]
+18.8 +14.2 75 +27  1010.7  2.4  755  282           
21 01.06.13 200 (Ю) 10 км    8/0 верхняя 
[Ci]
+17.4 +13.8 79 +25  1010.2  -0.6  755  283           
00 02.06.13 220 (ЮЗ) 10 км    ясно 
+16 +13.1 83 +22  1010.7  0.5  755  285           
03 02.06.13 200 (Ю) 10 км    ясно 
+16.3 +12.9 80 +23  1011.1  0.4  756  285  +15.1         
06 02.06.13 260 (З) 10 км    6/6 1000 м 
[Cu med, cong]
+22.9 +13.3 55 +29  1011.2  0.2  756  278           
09 02.06.13 260 (З) 10 км    8/8 1000 м кучево-дожд. 
[Cb cap]
+25.8 +10.6 38 +28  1010.8  -0.3  756  276           
12 02.06.13 250 (З) 3{11}  10 км    8/4 1000 м верхняя 
[Cu med, cong|Ci fib]
+27.7 +3.7 21 +28  1009.5  -1.3  755  276           
15 02.06.13 250 (З) 10 км    4/1 1000 м средняя, верхняя 
[Sc diur, vesp|Ac trans|Ci fib]
+26.3 +4.6 25 +26  1008.6  -0.9  754  276    +28       
18 02.06.13 тихо ()   10 км    3/3 1500 м 
[Sc]
+22.4 +5.3 33 +22  1008.4  -0.3  754  280           
21 02.06.13 070 (В) 10 км    10/8 1000 м средняя 
[Sc|Ac und]
+20.1 +7.8 45 +20  1006  -2.4  752  281           
00 03.06.13 080 (В) 10 км    10/8 1000 м средняя 
[Sc|Ac und]
+19.2 +8.7 51 +21  1005  -1  751  281           
03 03.06.13 060 (СВ) 10 км    10/9 1000 м кучево-дожд., средняя 
[Cb cap|Ac und]
+18.2 +10.8 62 +22  1004.1  -0.9  750  282  +18.2         
06 03.06.13 110 (В) 10 км    10/5 1000 м кучево-дожд., средняя 
[Cb cap|Ac und]
+20.2 +10.1 52 +21  1004  -0.1  750  280           
09 03.06.13 210 (ЮЗ) 3{15}  4000 м  слаб. ливневой дождь  10/10 600 м кучево-дожд. 
[Cb cap]
+15.7 +13.6 87 +22  1006.4  2.3  752  284           
12 03.06.13 190 (Ю) 4{10}  10 км  {ливн. осадки}  10/4 1000 м кучево-дожд., верхняя 
[Cb cap|Ci fib]
+22.4 +11 48 +25  1005.1  -1.3  751  278           
15 03.06.13 190 (Ю) 10 км    10/5 1000 м кучево-дожд., средняя, верхняя 
[Cb cap|Ac trans|Ci fib]
+20.6 +11.8 57 +24  1006  0.9  752  279    +23.5     
18 03.06.13 100 (В) 10 км  {ливн. осадки}  10/6 1000 м кучево-дожд., средняя, верхняя 
[Cb cap|Ac trans|Ci fib]
+18.1 +14 77 +27  1006.3  0.3  752  281           
21 03.06.13 140 (ЮВ) 10 км  {ливн. осадки}  10/4 600 м кучево-дожд., средняя 
[Cb cap|Ac und]
+16.8 +13.9 83 +25  1006  -0.3  752  283           
00 04.06.13 120 (ЮВ) 10 км  в посл. час ливневой дождь  8/4 1000 м кучево-дожд., верхняя 
[Cb cap|Ci fib]
+16.8 +13.8 82 +25  1005.7  -0.3  752  283           
03 04.06.13 120 (ЮВ) 10 км  в посл. час ливневой дождь  10/6 300 м кучево-дожд., средняя, верхняя 
[Cb cap|Ac trans|Ci fib]
+16 +13.9 87 +23  1005.5  -0.2  752  283  +16       
06 04.06.13 120 (ЮВ) 4000 м  слаб. ливневой дождь  10/10 300 м кучево-дожд. 
[Cb cap]
+16.5 +15 91 +26  1006.7  1.1  752  283           
09 04.06.13 150 (ЮВ) 4000 м  слаб. ливневой дождь  10/10 200 м кучево-дожд. 
[Cb cap]
+16.6 +15.9 96 +27  1008  1.3  753  283           
12 04.06.13 170 (Ю) 10 км  в посл. час ливневой дождь  9/8 600 м кучево-дожд., средняя 
[Cb cap|Ac trans]
+18.9 +16.6 86 +30  1009.5  1.5  755  281           
15 04.06.13 180 (Ю) 4000 м  слаб. ливневой дождь{гроза}  9/9 600 м кучево-дожд., средняя 
[Cb cap|Ac trans]
+18.2 +15.9 86 +29  1010.9  1.4  756  282    +20.8  21     
18 04.06.13 190 (Ю) 10 км  в посл. час ливневой дождь{гроза}  9/9 1000 м кучево-дожд. 
[Cb cap]
+17 +15.3 90 +27  1013.1  2.2  757  284           
21 04.06.13 130 (ЮВ) 10 км  {ливн. осадки}  5/3 1500 м средняя, верхняя 
[Sc|Ac trans|Ci fib]
+16.6 +14.4 87 +25  1013.5  0.3  757  285           
00 05.06.13 140 (ЮВ) 10 км  {ливн. осадки}  ясно 
+16.3 +13.9 86 +25  1013.8  0.4  758  285           
06 05.06.13 200 (Ю) 10 км    3/0 средняя 
[Ac cast]
+22 +14.2 61 +29  1015.4  759  280           
09 05.06.13 260 (З) 10 км    8/6 1000 м верхняя 
[Cu med, cong|Ci]
+25 +11.9 44 +29  1015.3  0.1  759  278           
12 05.06.13 230 (ЮЗ) 10 км    8/8 1000 м средняя 
[Cu med, cong|Ac cast]
+26.3 +9.8 35 +27  1015  -0.3  759  277           
15 05.06.13 270 (З) 10 км    3/0 средняя 
[Ac cast]
+25.4 +10.3 39 +27  1014.5  -0.4  758  278    +27       
18 05.06.13 290 (З) 10 км    1/0 верхняя 
[Ci fib]
+20.8 +12.3 58 +25  1015.4  0.8  759  282           
21 05.06.13 320 (СЗ) 10 км    ясно 
+18.9 +13.8 72 +26  1015.6  0.2  759  283           
00 06.06.13 тихо ()   10 км    3/3 1000 м 
[Sc]
+16.5 +14.2 86 +24  1015.5  0.1  759  285           
06 06.06.13 040 (СВ) 10 км    3/0 верхняя 
[Ci fib]
+23 +15.4 62 +32  1015.4  -0.3  759  279           
09 06.06.13 040 (СВ) 10 км    9/8 1000 м кучево-дожд., средняя, верхняя 
[Cb cap|Ac trans|Ci fib]
+25.7 +13.6 47 +32  1014.7  -0.7  758  277           
12 06.06.13 090 (В) 10 км    10/8 1000 м верхняя 
[Cu med, cong|Ci fib]
+27.2 +10.9 36 +29  1013  -1.6  757  276           
15 06.06.13 тихо ()   10 км  в посл. час гроза{ливн. осадки}  10/5 1000 м кучево-дожд., средняя, верхняя 
[Cb cap|Ac trans|Ci ing]
+21.9 +16.2 70 +32  1013  757  279    +28.5  14     
18 06.06.13 060 (СВ) 10 км  {гроза, ливн. осадки}  10/8 1000 м кучево-дожд., верхняя 
[Cb cap|Ci fib]
+19.7 +13.9 69 +28  1014.6  1.6  758  282           
21 06.06.13 250 (З) 10 км    10/6 1000 м средняя, верхняя 
[Sc|Ac trans|Ci fib]
+18.5 +13.7 74 +26  1014.5  -0.2  758  283           
00 07.06.13 тихо ()   10 км    10/3 1500 м средняя 
[Sc|Ac und]
+17.1 +14.7 86 +25  1013.4  -1.1  757  284           
03 07.06.13 110 (В) 10 км    9/9 1000 м кучево-дожд., средняя 
[Cb cap|Ac trans]
+17.2 +14.9 86 +27  1014.6  1.2  758  284  +16.9         
06 07.06.13 190 (Ю) 10 км    10/3 1000 м средняя, верхняя 
[Sc|Ac trans|Ci fib]
+20.8 +14.1 65 +28  1014.6  0.1  758  281           
09 07.06.13 120 (ЮВ) 10 км    10/5 1000 м кучево-дожд., средняя 
[Cb cap|Ac und]
+22.8 +13.2 55 +28  1015  0.4  759  280           
12 07.06.13 180 (Ю) 10 км    10/4 1000 м кучево-дожд., средняя, верхняя 
[Cb cap|Ac trans|Ci fib]
+24 +14.1 54 +31  1014.1  -0.9  758  278           
15 07.06.13 290 (З) 10 км    10/5 1000 м кучево-дожд., средняя, верхняя 
[Cb cap|Ac trans|Ci fib]
+21.6 +13.5 60 +28  1014.5  0.3  758  280    +25.2       
18 07.06.13 040 (СВ) 10 км  слаб. ливневой дождь  10/8 1000 м кучево-дожд., средняя 
[Cb cap|Ac und]
+18.5 +12.7 69 +25  1015.4  0.9  759  284           
21 07.06.13 080 (В) 10 км  {ливн. осадки}  10/4 1000 м кучево-дожд., средняя, верхняя 
[Cb cap|Ac trans|Ci fib]
+17.1 +14.3 84 +26  1015.1  -0.3  759  285           
00 08.06.13 тихо ()   10 км  {ливн. осадки}  8/3 1000 м средняя, верхняя 
[Sc diur, vesp|Ac trans|Ci fib]
+16.3 +14.3 88 +24  1013.9  -1.2  758  285           
03 08.06.13 тихо ()   4000 м  слаб. ливневой дождь  10/10 1000 м кучево-дожд. 
[Cb cap]
+17 +14.5 85 +25  1014.5  0.6  758  285  +16.1    0.5     
06 08.06.13 060 (СВ) 10 км  {ливн. осадки}  9/9 1000 м кучево-дожд. 
[Cb cap]
+19.3 +14.9 76 +29  1014.6  0.1  758  282           
09 08.06.13 020 (С) 10 км    9/8 1000 м кучево-дожд., средняя, верхняя 
[Cb cap|Ac trans|Ci fib]
+23.4 +15.1 60 +32  1014.3  -0.3  758  278           
12 08.06.13 010 (С) 10 км    9/9 1000 м кучево-дожд. 
[Cb cap]
+23.2 +14.5 58 +31  1012.8  -1.5  757  278           
15 08.06.13 090 (В) 2{10}  10 км  слаб. ливневой дождь  10/10 1000 м кучево-дожд. 
[Cb cap]
+20.9 +15.8 73 +31  1012.6  -0.2  757  280    +25.4     
18 08.06.13 тихо ()   10 км  {ливн. осадки}  10/10 1000 м кучево-дожд. 
[Cb cap]
+18.6 +16.3 86 +29  1012.3  -0.3  757  282           
21 08.06.13 тихо ()   10 км    6/6 1000 м 
[Sc]
+16.8 +15.6 93 +26  1012.7  0.3  757  284           
00 09.06.13 090 (В) 10 км    9/6 1000 м средняя 
[Sc|Ac trans]
+16.2 +14.7 91 +26  1012.5  -0.2  757  285           
03 09.06.13 050 (СВ) 10 км    6/3 1000 м средняя 
[Sc|Ac trans]
+15.9 +14.6 92 +25  1012.5  -0.1  757  285  +15.1    0.3     
06 09.06.13 080 (В) 10 км    1/0 средняя 
[Ac trans]
+22.4 +13.4 57 +28  1012.5  757  279           
09 09.06.13 110 (В) 10 км    3/3 1000 м 
[Cu hum]
+23.6 +14.8 58 +32  1012.8  0.3  757  278           
12 09.06.13 130 (ЮВ) 10 км    8/6 1000 м кучево-дожд., верхняя 
[Cb cap|Ci ing]
+27.2 +13.3 42 +33  1011.2  -1.6  756  274           
15 09.06.13 120 (ЮВ) 10 км  гроза без осадков  8/6 1000 м кучево-дожд., средняя, верхняя 
[Cb cap|Ac trans|Ci ing]
+25.8 +10.6 38 +28  1010.7  -0.5  755  276    +28.2       
18 09.06.13 040 (СВ) 10 км  {гроза}  9/0 средняя, верхняя 
[Ac trans|Ci fib]
+22.6 +14.2 59 +30  1011.6  0.8  756  279           
21 09.06.13 тихо ()   10 км    ясно 
+19.8 +14.9 73 +28  1012.2  0.6  757  281           
00 10.06.13 тихо ()   10 км    ясно 
+17.6 +15 85 +26  1012.8  0.5  757  283           
03 10.06.13 040 (СВ) 10 км    3/0 верхняя 
[Ci fib]
+17.6 +15.7 89 +29  1012.9  0.1  757  283  +16.5         
06 10.06.13 060 (СВ) 10 км    3/3 1000 м 
[Sc diur, vesp]
+23.5 +12.7 51 +28  1013.1  0.3  757  279           
09 10.06.13 100 (В) 10 км    3/3 1000 м средняя 
[Cu med, cong|Ac trans]
+26.1 +14.7 49 +34  1013.1  757  276           
12 10.06.13 110 (В) 10 км    3/3 1000 м 
[Cu med, cong]
+29.9 +4.5 20 +30  1011.6  -1.5  756  274           
15 10.06.13 060 (СВ) 10 км    8/3 1000 м верхняя 
[Sc diur, vesp|Ci fib]
+29.1 +4.8 21 +29  1011  -0.6  756  274    +30.4       
18 10.06.13 тихо ()   10 км    8/0 верхняя 
[Ci fib]
+22.6 +13 55 +28  1012  756  279           
21 10.06.13 тихо ()   10 км    ясно 
+19.2 +13.4 69 +25  1011.7  -0.3  756  282           
00 11.06.13 тихо ()   10 км    4/0 верхняя 
[Ci fib]
+17.1 +14.6 85 +25  1012.3  0.5  757  284           
03 11.06.13 тихо ()   10 км    ясно 
+17.2 +15 87 +26  1013.1  0.5  757  284  +15.9         
06 11.06.13 070 (В) 10 км    ясно 
+24.3 +13.9 52 +31  1012.4  -0.7  757  277           
09 11.06.13 080 (В) 10 км    1/1 1000 м 
[Cu hum]
+28.1 +11.9 37 +32  1011.8  -0.6  756  274           
12 11.06.13 050 (СВ) 3{11}  10 км    8/3 1000 м средняя, верхняя 
[Cu med, cong|Ac cast|Ci]
+30 +9 27 +30  1010.7  -1.1  755  273           
15 11.06.13 200 (Ю) 10 км  {гроза}  10/10 1000 м кучево-дожд. 
[Cb cap]
+23.1 +15.6 63 +33  1010.9  0.2  756  277    +30.6       
18 11.06.13 210 (ЮЗ) 10 км  {гроза}  10/0 верхняя 
[Ci fib]
+21 +15.3 70 +30  1010.9  756  279           
21 11.06.13 200 (Ю) 10 км    8/6 1000 м средняя 
[Sc|Ac trans]
+19.2 +15.7 80 +31  1010.8  -0.1  755  281           
00 12.06.13 тихо ()   10 км    9/8 1000 м средняя 
[Sc|Ac trans]
+18.7 +15.9 84 +29  1010.1  -0.7  755  281           
06 12.06.13 090 (В) 10 км    8/3 1000 м средняя 
[Sc|Ac trans]
+21.7 +16.7 73 +33  1010  0.2  755  278           
09 12.06.13 090 (В) 10 км    3/3 1000 м средняя 
[Cu hum|Ac trans]
+27.8 +10.7 34 +30  1009  -0.9  754  274           
12 12.06.13 090 (В) 10 км    5/3 1000 м средняя, верхняя 
[Cu med, cong|Ac trans|Ci fib]
+29.4 +10.1 30 +31  1007.9  -1.1  753  272           
15 12.06.13 080 (В) 10 км    3/1 1000 м средняя, верхняя 
[Cu hum|Ac trans|Ci fib]
+29 +10.8 32 +31  1006.8  -1.1  753  272    +30       
18 12.06.13 020 (С) 10 км    ясно 
+25.7 +13 45 +31  1007  0.2  753  275           
21 12.06.13 050 (СВ) 10 км    ясно 
+22.2 +13.4 57 +28  1007.5  0.4  753  278           
00 13.06.13 070 (В) 10 км    3/0 средняя 
[Ac trans]
+20 +12.9 64 +25  1007.4  753  280           
03 13.06.13 030 (СВ) 10 км    6/0 средняя, верхняя 
[Ac trans|Ci fib]
+19.2 +12.6 66 +26  1008  0.6  753  281  +18.3         
06 13.06.13 080 (В) 10 км    9/0 средняя, верхняя 
[Ac trans|Ci]
+26 +14.9 50 +34  1007.9  753  274           
09 13.06.13 100 (В) 10 км    9/0 средняя, верхняя 
[Ac trans|Ci]
+30.2 +13 35 +35  1007.6  -0.2  753  271           
12 13.06.13 050 (СВ) 10 км    8/3 1000 м верхняя 
[Cu med, cong|Ci fib]
+32.2 +13.1 31 +38  1007.1  -0.5  753  269           
15 13.06.13 050 (СВ) 10 км    4/3 1000 м кучево-дожд., верхняя 
[Cb cap|Ci ing]
+32.1 +11.8 29 +36  1005.9  -1.2  752  269    +32.9       
18 13.06.13 020 (С) 10 км    3/0 средняя 
[Ac trans]
+26.8 +13 42 +32  1006.3  0.3  752  274           
21 13.06.13 020 (С) 10 км    ясно 
+24.5 +14.3 53 +32  1005.9  -0.4  752  275           
00 14.06.13 тихо ()   10 км    ясно 
+20.9 +15 69 +29  1006.7  0.8  752  279           
03 14.06.13 тихо ()   10 км    10/0 средняя, верхняя 
[Ac trans|Ci fib]
+21.7 +14.7 64 +30  1007.3  0.5  753  278  +20.1         
06 14.06.13 070 (В) 10 км    4/0 верхняя 
[Ci fib]
+28.1 +17 51 +40  1007.8  0.6  753  272           
09 14.06.13 100 (В) 10 км    10/0 верхняя 
[Ci fib]
+31.1 +17.9 45 +45  1007.7  0.1  753  269           
12 14.06.13 010 (С) 10 км    8/3 1000 м верхняя 
[Cu med, cong|Cc]
+33.7 +15.5 34 +43  1007.4  -0.3  753  267           
15 14.06.13 010 (С) 10 км    6/3 1000 м верхняя 
[Cu hum|Ci fib]
+33.8 +14.1 31 +41  1006.4  -0.9  752  267    +34.8       
18 14.06.13 010 (С) 10 км    3/3 1000 м 
[Sc diur, vesp]
+29.3 +11.6 33 +33  1006.5  752  272           
21 14.06.13 150 (ЮВ) 10 км    10/6 1000 м кучево-дожд., средняя 
[Cb cap|Ac und]
+26 +14.3 48 +33  1006.6  752  274           
00 15.06.13 210 (ЮЗ) 10 км  зарница  10/5 1000 м кучево-дожд., верхняя 
[Cb cap|Ci fib]
+23.9 +19.1 75 +40  1007.2  0.6  753  274           
03 15.06.13 070 (В) 10 км  в посл. час ливневой дождь{гроза}  10/6 1000 м кучево-дожд., средняя, верхняя 
[Cb cap|Ac trans|Ci fib]
+20.5 +18.1 86 +35  1009.1  1.8  754  279  +20.5       
06 15.06.13 050 (СВ) 10 км  {гроза, ливн. осадки}  6/3 1000 м средняя 
[Cu Sc|Ac trans]
+25.7 +18.5 64 +41  1009.3  0.3  754  274  +20.5         
09 15.06.13 240 (ЮЗ) 10 км    8/6 1000 м средняя, верхняя 
[Cu Sc|Ac trans|Ci fib]
+29.2 +17.7 50 +43  1008.5  -0.7  754  271           
12 15.06.13 190 (Ю) 10 км    8/6 1000 м средняя 
[Sc diur, vesp|Ac trans]
+30.4 +18.1 48 +45  1006.8  -1.7  753  269           
15 15.06.13 280 (З) 10 км    9/8 1000 м кучево-дожд., средняя 
[Cb cap|Ac trans]
+23.9 +18.3 71 +39  1007.2  0.3  753  275    +31.2       
18 15.06.13 270 (З) 10 км    8/6 1000 м средняя 
[Sc|Ac trans]
+22.1 +19.3 84 +39  1008.4  1.2  754  276           
21 15.06.13 260 (З) 4000 м  слаб. ливневой дождь{гроза}  10/10 1000 м кучево-дожд. 
[Cb cap]
+20.2 +19.3 95 +37  1007.3  -1.1  753  278           
03 16.06.13 100 (В) 4000 м  слаб. ливневые осадки, в посл. час гроза  10/10 600 м кучево-дожд. 
[Cb cap]
+19.7 +18.7 94 +37  1008.7  -0.6  754  279  +18.9    26     
06 16.06.13 180 (Ю) 10 км  {гроза, ливн. осадки}  10/10 300 м кучево-дожд. 
[Cb cap]
+19.5 +17.8 90 +34  1009.3  -0.6  754  280           
09 16.06.13 160 (Ю) 10 км  {ливн. осадки}  9/3 1000 м средняя 
[Sc|Ac As]
+22.1 +17.1 73 +34  1009.2  0.1  754  277           
12 16.06.13 060 (СВ) 10 км  {ливн. осадки}  10/8 1000 м кучево-дожд., средняя, верхняя 
[Cb cap|Ac trans|Ci fib]
+24.7 +18.1 67 +39  1008.9  -0.2  754  275           
15 16.06.13 040 (СВ) 10 км  в посл. час гроза  9/8 600 м кучево-дожд., средняя 
[Cb cap|Ac trans]
+22.8 +17.6 72 +36  1009.3  0.3  754  277    +26.8     
18 16.06.13 тихо ()   10 км  {гроза}  9/9 1000 м кучево-дожд. 
[Cb cap]
+22.5 +18.9 80 +39  1009.3  754  276           
21 16.06.13 200 (Ю) 10 км    4/4 1000 м 
[Sc diur, vesp]
+21 +17.6 81 +34  1009.3  0.1  754  278           
00 17.06.13 220 (ЮЗ) 10 км    5/5 1000 м 
[Sc]
+20 +17 83 +32  1008.7  -0.5  754  279           
03 17.06.13 тихо ()   10 км    4/0 средняя 
[Ac cast]
+19.9 +17.6 87 +33  1009.2  0.5  754  279  +18.7         
06 17.06.13 200 (Ю) 10 км    5/3 1000 м верхняя 
[Cu hum|Ci fib]
+24.5 +16.9 63 +36  1009.1  754  275           
09 17.06.13 190 (Ю) 10 км    10/4 1000 м средняя, верхняя 
[Cu med, cong|Ac trans|Ci]
+26.7 +16.9 55 +39  1008.7  -0.3  754  273           
12 17.06.13 190 (Ю) 10 км    8/3 1000 м средняя, верхняя 
[Cu Sc|Ac trans|Ci fib]
+26.4 +16.9 56 +38  1008.5  -0.2  754  273           
18 17.06.13 200 (Ю) 10 км    10/3 1000 м верхняя 
[Sc|Ci fib]
+24 +16.7 64 +36  1008.7  0.5  754  276           
21 17.06.13 200 (Ю) 10 км    5/3 1000 м верхняя 
[Sc|Ci fib]
+21.1 +17.5 80 +34  1008.8  0.1  754  278           
00 18.06.13 210 (ЮЗ) 10 км    10/0 верхняя 
[Ci fib]
+19.7 +17.1 85 +33  1008.2  -0.6  754  279           
03 18.06.13 200 (Ю) 10 км    10/3 1000 м верхняя 
[Sc|Ci fib]
+19.2 +17 87 +33  1007.9  -0.3  753  280  +18.8         
06 18.06.13 250 (З) 10 км    8/0 средняя, верхняя 
[Ac trans|Cc]
+25.7 +15.6 54 +35  1008.4  0.5  754  274           
09 18.06.13 270 (З) 10 км    8/3 1000 м средняя, верхняя 
[Sc|Ac trans|Ci fib]
+28.4 +16.3 48 +39  1008  -0.3  753  272           
12 18.06.13 250 (З) 10 км    6/5 1000 м верхняя 
[Cu med, cong|Ci sp]
+30.4 +18.7 50 +46  1007.1  -0.9  753  269           
15 18.06.13 300 (СЗ) 10 км    9/3 1000 м кучево-дожд., средняя, верхняя 
[Cb cap|Ac trans|Ci ing]
+30.6 +14.9 39 +39  1007.6  0.5  753  270    +31       
18 18.06.13 290 (З) 10 км    8/4 1000 м кучево-дожд., верхняя 
[Cb cap|Ci fib]
+26.8 +16.3 53 +38  1008.9  1.3  754  273           
21 18.06.13 300 (СЗ) 10 км    9/9 1000 м кучево-дожд. 
[Cb cap]
+24 +17.8 68 +38  1009.6  0.6  755  275           
00 19.06.13 тихо ()   10 км    1/0 средняя 
[Ac trans]
+21 +17.4 80 +34  1010.2  0.6  755  279           
03 19.06.13 280 (З) 10 км    3/3 1500 м 
[Sc]
+20.6 +17.1 80 +33  1011  0.8  756  279  +20.1         
06 19.06.13 020 (С) 10 км    3/0 средняя 
[Ac cast]
+26 +16 54 +36  1011.1  0.1  756  275           
09 19.06.13 300 (СЗ) 10 км    8/8 1000 м кучево-дожд. 
[Cb cap]
+27 +14.8 47 +35  1010.9  -0.2  756  274           
12 19.06.13 330 (СЗ) 10 км    8/8 1000 м кучево-дожд. 
[Cb cap]
+28.2 +10.9 34 +30  1010.5  -0.3  755  274           
15 19.06.13 300 (СЗ) 10 км    3/3 1000 м 
[Cu hum]
+27.3 +9 32 +27  1010.9  0.4  756  275    +29.1       
18 19.06.13 300 (СЗ) 10 км    4/0 верхняя 
[Ci]
+22.8 +10.3 45 +24  1012.6  1.6  757  280           
21 19.06.13 350 (С) 10 км    ясно 
+20.3 +11 55 +23  1013.5  0.9  758  282           
00 20.06.13 360 (С) 10 км    ясно 
+17.8 +9.8 59 +20  1013.9  0.4  758  285           
03 20.06.13 тихо ()   10 км    ясно 
+17.2 +10.1 63 +18  1015.1  1.2  759  286  +16         
06 20.06.13 310 (СЗ) 10 км    ясно 
+22.2 +9.1 43 +22  1015.9  0.9  759  281           
09 20.06.13 310 (СЗ) 10 км    8/8 1000 м верхняя 
[Sc diur, vesp|Cc]
+24.9 +8.6 35 +25  1015.8  0.1  759  279           
12 20.06.13 300 (СЗ) 2{10}  10 км    8/8 1000 м 
[Cu med, cong]
+27.2 +8 30 +27  1015  -0.7  759  277           
15 20.06.13 320 (СЗ) 10 км    6/6 1000 м кучево-дожд. 
[Cb cap]
+26.7 +8.8 32 +27  1014.9  0.1  759  277    +27.6       
18 20.06.13 310 (СЗ) 10 км    ясно 
+22 +10.1 47 +23  1016.1  1.1  759  281           
21 20.06.13 тихо ()   10 км    ясно 
+18.7 +12.1 65 +22  1016.4  0.3  760  284           
00 21.06.13 220 (ЮЗ) 10 км    ясно 
+17.2 +12.5 74 +23  1015.9  -0.5  759  285           
03 21.06.13 210 (ЮЗ) 10 км    1/0 средняя 
[Ac cast]
+16.7 +12.9 78 +23  1016  0.1  759  286  +16         
06 21.06.13 210 (ЮЗ) 10 км    8/0 верхняя 
[Ci fib]
+23.8 +15.2 59 +32  1016.2  0.3  760  278           
09 21.06.13 140 (ЮВ) 10 км  {ливн. осадки}  5/5 1000 м кучево-дожд. 
[Cb cap]
+26.2 +11.9 41 +30  1015.3  -0.8  759  277           
15 21.06.13 320 (СЗ) 10 км    10/3 1000 м верхняя 
[Cu med, cong|Ci fib]
+26.5 +7.7 30 +27  1014.5  -0.2  758  277    +28.6  0.5     
18 21.06.13 260 (З) 10 км    8/8 1000 м 
[Sc diur, vesp]
+23.3 +6.6 34 +23  1015.4  0.8  759  281           
21 21.06.13 260 (З) 10 км    10/8 1000 м кучево-дожд., средняя 
[Cb cap|Ac und]
+21 +11.2 53 +24  1015.5  0.1  759  282           
00 22.06.13 260 (З) 4000 м  слаб. ливневой дождь  10/10 1000 м кучево-дожд. 
[Cb cap]
+17.9 +13.9 77 +26  1015.4  -0.1  759  284           
03 22.06.13 200 (Ю) 10 км  {ливн. осадки}  10/3 1000 м средняя, верхняя 
[Sc diur, vesp|Ac cast|Ci fib]
+16.9 +13.7 81 +24  1013.1  -2.3  757  285  +16.3       
06 22.06.13 220 (ЮЗ) 10 км  слаб. ливневой дождь, в посл. час гроза  8/5 1000 м кучево-дожд., средняя, верхняя 
[Cb cap|Ac trans|Cc]
+24.1 +17 65 +36  1012.6  -0.4  757  277           
09 22.06.13 250 (З) 4-11{11}  10 км  в посл. час гроза{ливн. осадки}  10/8 1000 м кучево-дожд., средняя, верхняя 
[Cb cap|Ac trans|Cs]
+25.3 +15.5 55 +35  1011.4  -1.1  756  276           
12 22.06.13 240 (ЮЗ) 4{11}  10 км  {гроза, ливн. осадки}  8/8 1000 м кучево-дожд. 
[Cb cap]
+26.6 +16.6 54 +38  1011.8  0.4  756  274           
15 22.06.13 260 (З) 5-10{11}  10 км    10/10 1000 м кучево-дожд. 
[Cb cap]
+26.6 +13.8 45 +33  1010.9  -0.8  756  275    +27.6     
18 22.06.13 240 (ЮЗ) 2{12}  10 км    3/3 1000 м 
[Sc]
+22.2 +14.5 62 +30  1012.1  1.1  756  279           
21 22.06.13 210 (ЮЗ) 10 км    8/8 1000 м 
[Sc]
+20.4 +14.8 70 +28  1012.2  757  281           
00 23.06.13 210 (ЮЗ) 10 км    10/10 1000 м кучево-дожд. 
[Cb cap]
+20.4 +14.8 70 +29  1012.2  -0.4  756  280           
03 23.06.13 220 (ЮЗ) 10 км    8/6 1000 м кучево-дожд., средняя 
[Cb cap|Ac trans]
+21.2 +14.8 67 +29  1011.9  0.1  756  280  +20.1        сухая 
06 23.06.13 200 (Ю) 10 км    9/4 1000 м средняя 
[Sc|Ac trans]
+23.3 +17.4 69 +36  1012  0.1  756  277           
09 23.06.13 260 (З) 10 км  в посл. час ливневой дождь  10/10 1000 м кучево-дожд. 
[Cb cap]
+23.8 +15.8 61 +34  1012.3  0.3  757  277           
12 23.06.13 230 (ЮЗ) 10 км  {ливн. осадки}  8/5 1000 м кучево-дожд., средняя 
[Cb cap|Ac trans]
+25.6 +15.4 53 +35  1012  -0.3  756  275           
15 23.06.13 250 (З) 10 км    9/8 1000 м средняя 
[Sc diur, vesp|Ac trans]
+24.3 +14.4 54 +32  1011.6  -0.3  756  277    +25.9  0.0     
18 23.06.13 210 (ЮЗ) 10 км    3/3 1000 м 
[Sc]
+21.9 +14.9 64 +30  1011.6  0.1  756  279           
21 23.06.13 тихо ()   10 км    ясно 
+18.7 +15.7 83 +28  1011.3  -0.3  756  282           
00 24.06.13 тихо ()   10 км    3/0 средняя 
[Ac trans]
+17.2 +15.4 89 +26  1011.4  0.1  756  283           
03 24.06.13 190 (Ю) 10 км    3/0 средняя 
[Ac cast]
+17.8 +15.8 88 +29  1011.3  0.1  756  283  +16.1         
06 24.06.13 тихо ()   10 км    8/3 1000 м средняя, верхняя 
[Cu Sc|Ac trans|Ci]
+23.2 +16.7 67 +35  1011.5  0.2  756  277           
09 24.06.13 150 (ЮВ) 10 км    10/3 1000 м средняя, верхняя 
[Cu med, cong|Ac cast|Ci fib]
+26.6 +14.5 47 +34  1011.1  -0.3  756  275           
12 24.06.13 210 (ЮЗ) 10 км    6/4 1000 м кучево-дожд., верхняя 
[Cb cap|Ci fib]
+27.3 +13.3 42 +33  1010.4  -0.7  755  274           
15 24.06.13 020 (С) 10 км    10/5 1000 м кучево-дожд., средняя, верхняя 
[Cb cap|Ac trans|Ci fib]
+25.6 +12.9 45 +31  1010.5  0.1  755  276    +28.7       
18 24.06.13 тихо ()   10 км    3/3 1000 м 
[Sc diur, vesp]
+22.5 +15.4 64 +32  1010.6  755  278           
21 24.06.13 280 (З) 10 км    ясно 
+20.4 +14.5 69 +28  1011  0.4  756  280           
00 25.06.13 250 (З) 10 км    ясно 
+19.4 +14.9 75 +29  1011  756  281           
03 25.06.13 тихо ()   10 км    3/3 1000 м 
[Sc]
+18.8 +14.1 74 +26  1011  756  282  +17.6         
06 25.06.13 070 (В) 10 км    ясно 
+25.9 +13.9 47 +33  1011.3  756  275           
09 25.06.13 010 (С) 10 км    5/5 1000 м 
[Cu hum]
+29.6 +9.9 29 +30  1011.2  0.1  756  273           
12 25.06.13 330 (СЗ) 10 км    5/5 1000 м 
[Cu hum]
+31.6 +10.2 27 +33  1010.3  -0.9  755  271           
18 25.06.13 300 (СЗ) 10 км    ясно 
+26.4 +13.3 44 +32  1011.2  1.1  756  275           
21 25.06.13 280 (З) 10 км    8/8 1000 м 
[Sc]
+23.5 +15.8 62 +33  1011.7  0.4  756  277           
00 26.06.13 230 (ЮЗ) 10 км    ясно 
+21.3 +16.5 74 +32  1011.6  -0.1  756  279           
03 26.06.13 200 (Ю) 10 км    ясно 
+21 +16.2 74 +32  1012.3  0.7  757  280  +20.4         
06 26.06.13 080 (В) 10 км    ясно 
+27.3 +16.4 51 +38  1012.9  0.7  757  274           
09 26.06.13 080 (В) 10 км    1/1 1500 м 
[Sc diur, vesp]
+30.8 +14.2 36 +38  1013.3  0.4  757  271           
12 26.06.13 050 (СВ) 10 км    4/4 1000 м 
[Sc diur, vesp]
+32.4 +12.8 30 +37  1013.3  757  270           
15 26.06.13 070 (В) 10 км    1/1 1500 м 
[Sc diur, vesp]
+32.2 +12.3 30 +36  1012.9  -0.4  757  271    +33       
18 26.06.13 030 (СВ) 10 км    ясно 
+27.6 +14.8 46 +36  1013.6  0.6  758  274           
21 26.06.13 030 (СВ) 10 км    ясно 
+25.6 +14 49 +32  1013.9  0.3  758  276           
00 27.06.13 тихо ()   10 км    ясно 
+22.9 +14.1 58 +30  1014  -0.1  758  279           
03 27.06.13 тихо ()   10 км    ясно 
+21.7 +15.1 66 +30  1014.6  0.6  758  280  +20.8         
06 27.06.13 090 (В) 10 км    ясно 
+28.8 +14.4 41 +36  1014.5  758  274           
09 27.06.13 080 (В) 4{10}  10 км    1/1 1000 м 
[Cu med, cong]
+32.5 +11.3 27 +35  1014.3  -0.2  758  271           
12 27.06.13 070 (В) 10 км    3/3 1000 м 
[Cu med, cong]
+33 +11.1 26 +35  1013.8  -0.6  758  270           
15 27.06.13 060 (СВ) 10 км    ясно 
+33.5 +10.1 24 +35  1012.7  -1.1  757  270    +34.1       
18 27.06.13 030 (СВ) 10 км    ясно 
+29.2 +11.4 33 +32  1012.4  -0.3  757  273           
21 27.06.13 030 (СВ) 10 км    ясно 
+26.4 +11.4 39 +29  1012  -0.4  756  276           
00 28.06.13 040 (СВ) 10 км    ясно 
+22.9 +12.3 51 +27  1011.9  -0.2  756  279           
03 28.06.13 060 (СВ) 10 км    ясно 
+22.2 +12.9 56 +27  1011.7  -0.2  756  279  +20.8         
06 28.06.13 060 (СВ) 10 км    ясно 
+29.4 +13.5 38 +35  1011.5  0.1  756  272           
09 28.06.13 080 (В) 10 км    ясно 
+33.8 +12.5 28 +38  1010.6  -0.9  755  269           
12 28.06.13 070 (В) 10 км    3/3 1000 м 
[Cu med, cong]
+35.7 +10.7 22 +38  1009.3  -1.2  755  267           
15 28.06.13 030 (СВ) 10 км    1/1 1000 м 
[Cu hum]
+35.8 +10.5 22 +38  1008  -1.3  754  267    +36.1       
18 28.06.13 010 (С) 10 км    ясно 
+30.6 +12.2 32 +35  1007.9  -0.2  753  271           
21 28.06.13 020 (С) 10 км    ясно 
+27.5 +14 44 +34  1007.6  -0.3  753  273           
00 29.06.13 тихо ()   10 км    ясно 
+24.8 +14.9 54 +33  1007.4  -0.3  753  275           
06 29.06.13 200 (Ю) 10 км    3/3 1000 м 
[Cu hum]
+29 +20.1 59 +48  1007.4  -0.4  753  269           
09 29.06.13 250 (З) 10 км    6/4 1000 м средняя 
[Cu Sc|Ac trans]
+33.2 +17.8 40 +47  1007.5  0.2  753  267           
12 29.06.13 240 (ЮЗ) 10 км    8/6 1000 м кучево-дожд., средняя, верхняя 
[Cb cap|Ac trans|Ci fib]
+31.6 +19.6 49 +49  1006.6  -0.9  752  267           
15 29.06.13 120 (ЮВ) 2{11}  10 км  {гроза, ливн. осадки}  9/8 1000 м кучево-дожд., средняя 
[Cb cap|Ac trans]
+29.1 +14 40 +36  1007.4  0.7  753  271    +34.3       
18 29.06.13 190 (Ю) 10 км  {гроза, ливн. осадки}  8/6 1000 м кучево-дожд., средняя, верхняя 
[Cb cap|Ac trans|Ci fib]
+27.1 +15.2 48 +36  1008  0.6  753  273           
21 29.06.13 тихо () {10}  10 км  в посл. час гроза  6/3 1000 м кучево-дожд., средняя, верхняя 
[Cb cap|Ac trans|Ci fib]
+23.1 +16.1 65 +34  1008.6  0.5  754  277           
00 30.06.13 230 (ЮЗ) 10 км  {гроза}  6/3 1000 м средняя 
[Sc|Ac trans]
+22.4 +17.7 75 +36  1008.2  -0.4  754  277           
03 30.06.13 200 (Ю) 10 км    ясно 
+22.7 +19.4 82 +40  1007.4  -0.8  753  275  +21.5         
06 30.06.13 270 (З) 10 км    4/4 1000 м 
[Sc diur, vesp]
+27.9 +19.3 60 +45  1007.4  753  271           
Время (UTC), дата Ветер
(°,м/с) 
Видим.   Явления Облачность Т
(°С)
Тd
(°С)
f(%) Тe
(°С)
Pmin
(гПа)
dP
(гПа)
Po
(мм)
O2
(г/м3)
Тmin Tmax R s Состояние
почвы